Regional Weather Roundup
Issued by NWS Cleveland, OH

Home | Current Version | Previous Version | Text Only | Print | Product List | Glossary Off
Versions: 1 2 3 4 5 6 7 8 9 10 11 12 13 14 15 16 17 18 19 20 21 22 23 24 25 26 27 28 29 30 31 32 33 34 35 36 37 38 39 40 41 42 43 44 45 46 47 48 49 50

000
ASUS41 KCLE 182302
RWRCLE
OHIO REGIONAL WEATHER ROUNDUP
NATIONAL WEATHER SERVICE CLEVELAND, OH
700 PM EDT FRI AUG 18 2017

NOTE: "FAIR" INDICATES FEW OR NO CLOUDS BELOW 12,000 FEET WITH NO
SIGNIFICANT WEATHER AND/OR OBSTRUCTIONS TO VISIBILITY.

OHZ001>008-015>018-024>027-034-035-043-044-190000-
   NORTHWEST OHIO

CITY           SKY/WX    TMP DP  RH WIND       PRES   REMARKS
DEFIANCE       SUNNY     78  62  57 VRB5      29.85S
FINDLAY        SUNNY     79  61  53 W15       29.84F
TOLEDO EXPRESS SUNNY     77  63  61 W9        29.84S
TOLEDO EXEC    SUNNY     78  61  55 W14       29.84S
LIMA           MOSUNNY   78  63  59 W15G21    29.87S
$$

OHZ009>014-019>023-028>033-038-089-190000-
   NORTHEAST OHIO

CITY           SKY/WX    TMP DP  RH WIND       PRES   REMARKS
CLE-HOPKINS    PTSUNNY   81  63  54 W15       29.85R
CLE-LAKEFRONT  MOSUNNY   76  67  73 W8        29.82R
CUY CO. ARPT   NOT AVBL
LORAIN-ELYRIA  SUNNY     77  57  50 W9        29.84S
ASHTABULA      SUNNY     75  62  64 W13       29.84R
AKRON-CANTON   MOSUNNY   80  61  52 W14G23    29.85R
WOOSTER        SUNNY     78  62  57 W8        29.86S
MANSFIELD      MOSUNNY   78  62  57 W9        29.87S
YOUNGSTOWN     PTSUNNY   78  63  59 NW12      29.83R
$$

OHZ042-051>053-060>062-070>072-077>081-190000-
  SOUTHWEST OHIO

CITY           SKY/WX    TMP DP  RH WIND       PRES   REMARKS
CINC-COVINGTON MOSUNNY   82  64  54 W12       29.91S
CINC-LUNKEN    MOSUNNY   83  64  52 W9        29.90S
HAMILTON       SUNNY     83  63  50 W10G16    29.90S
DAYTON         MOSUNNY   80  63  55 W13       29.90S
WRIGHT-PAT AFB MOSUNNY   82  62  50 W12       29.88S
DAYTON GENERAL SUNNY     81  62  52 W12G18    29.90S
WILMINGTON     SUNNY     80  64  58 W10       29.90S
$$

OHZ036-037-039>041-045>050-054>059-063>069-073>076-082>088-190000-
  CENTRAL AND SOUTHEAST OHIO

CITY           SKY/WX    TMP DP  RH WIND       PRES   REMARKS
COLUMBUS       MOSUNNY   82  64  54 W13       29.86S
OSU AIRPORT    MOSUNNY   80  66  62 W13       29.87S
BOLTON FIELD   SUNNY     81  64  57 W10       29.88F
RICKENBACK AFB SUNNY     80  64  57 W10       29.86S
NEWARK         SUNNY     82  63  52 W9        29.86S
MARION         MOSUNNY   79  61  53 W10       29.87S
LANCASTER      SUNNY     80  66  62 W8        29.88S
ZANESVILLE     MOSUNNY   81  64  56 SW8       29.87R
NEW PHILLY     NOT AVBL
$$




USA.gov is the U.S. government's official web portal to all federal, state and local government web resources and services.